Back to catalog

SL-16 DEB

AliveLEO
NORAD 22408·DEBRIS·🇷🇺 Russia

Launched Dec 25, 1992 from Baikonur Cosmodrome

Loading…

Next Passes (next 24 hours)

TLE

FreshSource: Space-Track

Epoch: Sep 14, 2026, 14:20 UTC

1 22408U 92093CZ  26257.59747890  .00000879  00000-0  46143-3 0  9995
2 22408  71.0736 314.7481 0120346 269.2265 244.1317 14.13238570720711

Track SL-16 DEB in real time with AllMySat

Download on the App Store